When you browse on this site, cookies collect data to enhance your experience and personalize the content and advertising you see.
Visit our Privacy Policy to learn more. By continuing to use the site, you agree to this use of cookies and data.
  • In Schweiz
  • Länderverzeichnis
  • Für 7 Tage
  • Wassertemperatur
  • Satellitenkarten
  • Wetterkarte
  • Widgets
  • user-avatar
    Anmelden

    Stündliche Wetter Okolnik

    Heute, 18 November, Sonntag

    Zeit Temperatur Niederschläge Wind Luftdruck Luftfeuchtigkeit
    00:00 +1°C° 0 mm 1 m/S 760 mmHg 48%
    01:00 +1°C° 0 mm 1 m/S 760 mmHg 48%
    02:00 +1°C° 0 mm 1 m/S 759 mmHg 47%
    03:00 +1°C° 0 mm 1 m/S 758 mmHg 49%
    04:00 -2°C° 0 mm 2 m/S 758 mmHg 51%
    05:00 -2°C° 0 mm 2 m/S 757 mmHg 53%
    06:00 -1°C° 0 mm 2 m/S 756 mmHg 56%
    07:00 -1°C° 0 mm 3 m/S 756 mmHg 59%
    08:00 -1°C° 0 mm 3 m/S 755 mmHg 65%
    09:00 -1°C° 0.6 mm 3 m/S 754 mmHg 74%
    10:00 -1°C° 0.6 mm 3 m/S 754 mmHg 82%
    11:00 -1°C° 0.6 mm 3 m/S 753 mmHg 90%
    12:00 0°C° 0.2 mm 3 m/S 753 mmHg 90%
    13:00 +1°C° 0.2 mm 3 m/S 752 mmHg 90%
    14:00 +2°C° 0.2 mm 2 m/S 752 mmHg 90%
    15:00 +2°C° 0.1 mm 2 m/S 752 mmHg 92%
    16:00 +2°C° 0.1 mm 2 m/S 752 mmHg 94%
    17:00 +2°C° 0.1 mm 2 m/S 751 mmHg 96%
    18:00 +2°C° 0.1 mm 2 m/S 751 mmHg 96%
    19:00 +2°C° 0.1 mm 2 m/S 751 mmHg 96%
    20:00 +1°C° 0.1 mm 2 m/S 751 mmHg 96%
    21:00 0°C° 0 mm 3 m/S 751 mmHg 96%
    22:00 0°C° 0 mm 3 m/S 751 mmHg 96%
    23:00 0°C° 0 mm 3 m/S 752 mmHg 96%

    Morgen, 19 November, Montag

    Zeit Temperatur Niederschläge Wind Luftdruck Luftfeuchtigkeit
    00:00 0°C° 0 mm 3 m/S 752 mmHg 96%
    01:00 0°C° 0 mm 3 m/S 752 mmHg 95%
    02:00 0°C° 0 mm 3 m/S 752 mmHg 95%
    03:00 0°C° 0 mm 3 m/S 752 mmHg 95%
    04:00 0°C° 0 mm 3 m/S 752 mmHg 94%
    05:00 0°C° 0 mm 3 m/S 752 mmHg 94%
    06:00 -1°C° 0 mm 4 m/S 752 mmHg 94%
    07:00 -1°C° 0 mm 4 m/S 752 mmHg 93%
    08:00 -1°C° 0 mm 4 m/S 752 mmHg 93%
    09:00 -1°C° 0 mm 4 m/S 753 mmHg 91%
    10:00 -1°C° 0 mm 5 m/S 753 mmHg 89%
    11:00 0°C° 0 mm 5 m/S 753 mmHg 87%
    12:00 0°C° 0 mm 5 m/S 753 mmHg 86%
    13:00 0°C° 0 mm 5 m/S 753 mmHg 85%
    14:00 0°C° 0 mm 5 m/S 753 mmHg 84%
    15:00 0°C° 0 mm 5 m/S 753 mmHg 85%
    16:00 -1°C° 0 mm 4 m/S 754 mmHg 86%
    17:00 -1°C° 0 mm 4 m/S 754 mmHg 87%
    18:00 -1°C° 0 mm 4 m/S 754 mmHg 87%
    19:00 -1°C° 0 mm 4 m/S 754 mmHg 87%
    20:00 -1°C° 0 mm 4 m/S 754 mmHg 87%
    21:00 -1°C° 0 mm 4 m/S 755 mmHg 87%
    22:00 -1°C° 0 mm 4 m/S 755 mmHg 87%
    23:00 -2°C° 0 mm 5 m/S 755 mmHg 86%

    übermorgen, 20 November, Dienstag

    Zeit Temperatur Niederschläge Wind Luftdruck Luftfeuchtigkeit
    00:00 -2°C° 0 mm 4 m/S 755 mmHg 85%
    01:00 -2°C° 0 mm 4 m/S 755 mmHg 84%
    02:00 -2°C° 0 mm 4 m/S 755 mmHg 83%
    03:00 -3°C° 0 mm 4 m/S 755 mmHg 85%
    04:00 -3°C° 0 mm 4 m/S 755 mmHg 86%
    05:00 -3°C° 0 mm 4 m/S 755 mmHg 88%
    06:00 -3°C° 0 mm 4 m/S 755 mmHg 88%
    07:00 -3°C° 0 mm 4 m/S 755 mmHg 88%
    08:00 -4°C° 0 mm 5 m/S 755 mmHg 89%
    09:00 -4°C° 0 mm 5 m/S 755 mmHg 86%
    10:00 -2°C° 0 mm 5 m/S 755 mmHg 84%
    11:00 -2°C° 0 mm 5 m/S 755 mmHg 82%
    12:00 -2°C° 0 mm 5 m/S 754 mmHg 81%
    13:00 -2°C° 0 mm 5 m/S 754 mmHg 80%
    14:00 -2°C° 0 mm 5 m/S 754 mmHg 79%
    15:00 -2°C° 0 mm 5 m/S 754 mmHg 81%
    16:00 -2°C° 0 mm 5 m/S 753 mmHg 82%
    17:00 -2°C° 0 mm 5 m/S 753 mmHg 84%
    18:00 -2°C° 0 mm 5 m/S 753 mmHg 85%
    19:00 -2°C° 0 mm 5 m/S 753 mmHg 86%
    20:00 -2°C° 0 mm 5 m/S 753 mmHg 86%
    21:00 -4°C° 0 mm 5 m/S 753 mmHg 86%
    22:00 -4°C° 0 mm 5 m/S 753 mmHg 86%
    23:00 -4°C° 0 mm 5 m/S 753 mmHg 86%

    21 November, Mittwoch

    Zeit Temperatur Niederschläge Wind Luftdruck Luftfeuchtigkeit
    00:00 -4°C° 0 mm 5 m/S 753 mmHg 86%
    01:00 -4°C° 0 mm 5 m/S 753 mmHg 85%
    02:00 -4°C° 0 mm 5 m/S 753 mmHg 84%
    03:00 -4°C° 0 mm 5 m/S 753 mmHg 83%
    04:00 -4°C° 0 mm 5 m/S 753 mmHg 83%
    05:00 -4°C° 0 mm 5 m/S 753 mmHg 82%
    06:00 -5°C° 0 mm 5 m/S 753 mmHg 82%
    07:00 -5°C° 0 mm 5 m/S 753 mmHg 82%
    08:00 -5°C° 0 mm 5 m/S 753 mmHg 81%
    09:00 -4°C° 0 mm 5 m/S 754 mmHg 80%
    10:00 -4°C° 0 mm 5 m/S 754 mmHg 78%
    11:00 -4°C° 0 mm 5 m/S 754 mmHg 76%
    12:00 -2°C° 0 mm 5 m/S 754 mmHg 75%
    13:00 -2°C° 0 mm 5 m/S 754 mmHg 75%
    14:00 -2°C° 0 mm 4 m/S 754 mmHg 74%
    15:00 -2°C° 0 mm 4 m/S 754 mmHg 77%
    16:00 -3°C° 0 mm 4 m/S 754 mmHg 80%
    17:00 -3°C° 0 mm 4 m/S 754 mmHg 82%
    18:00 -4°C° 0 mm 4 m/S 755 mmHg 83%
    19:00 -4°C° 0 mm 4 m/S 755 mmHg 83%
    20:00 -4°C° 0 mm 4 m/S 755 mmHg 84%
    21:00 -4°C° 0 mm 4 m/S 755 mmHg 84%
    22:00 -4°C° 0 mm 3 m/S 755 mmHg 84%
    23:00 -4°C° 0 mm 3 m/S 756 mmHg 84%

    22 November, Donnerstag

    Zeit Temperatur Niederschläge Wind Luftdruck Luftfeuchtigkeit
    00:00 -5°C° 0 mm 3 m/S 756 mmHg 84%
    01:00 -5°C° 0 mm 3 m/S 756 mmHg 84%
    02:00 -5°C° 0 mm 3 m/S 756 mmHg 83%
    03:00 -5°C° 0 mm 3 m/S 756 mmHg 83%
    04:00 -5°C° 0 mm 3 m/S 756 mmHg 83%
    05:00 -5°C° 0 mm 3 m/S 756 mmHg 83%
    06:00 -5°C° 0 mm 3 m/S 756 mmHg 83%
    07:00 -5°C° 0 mm 3 m/S 756 mmHg 83%
    08:00 -5°C° 0 mm 3 m/S 756 mmHg 83%
    09:00 -4°C° 0 mm 3 m/S 756 mmHg 80%
    10:00 -4°C° 0 mm 3 m/S 757 mmHg 77%
    11:00 -2°C° 0 mm 3 m/S 757 mmHg 73%
    12:00 -2°C° 0 mm 3 m/S 757 mmHg 72%
    13:00 -1°C° 0 mm 3 m/S 757 mmHg 71%
    14:00 -1°C° 0 mm 3 m/S 757 mmHg 70%
    15:00 -2°C° 0 mm 2 m/S 757 mmHg 75%
    16:00 -2°C° 0 mm 2 m/S 757 mmHg 79%
    17:00 -3°C° 0 mm 2 m/S 757 mmHg 84%
    18:00 -3°C° 0 mm 2 m/S 757 mmHg 86%
    19:00 -3°C° 0 mm 2 m/S 757 mmHg 87%
    20:00 -3°C° 0 mm 2 m/S 758 mmHg 89%
    21:00 -4°C° 0 mm 2 m/S 758 mmHg 89%
    22:00 -4°C° 0 mm 2 m/S 758 mmHg 89%
    23:00 -4°C° 0 mm 2 m/S 758 mmHg 89%

    23 November, Freitag

    Zeit Temperatur Niederschläge Wind Luftdruck Luftfeuchtigkeit
    00:00 -4°C° 0 mm 2 m/S 758 mmHg 89%
    01:00 -4°C° 0 mm 2 m/S 758 mmHg 89%
    02:00 -4°C° 0 mm 2 m/S 758 mmHg 89%
    03:00 -4°C° 0 mm 2 m/S 758 mmHg 89%
    04:00 -4°C° 0 mm 2 m/S 758 mmHg 88%
    05:00 -4°C° 0 mm 2 m/S 758 mmHg 88%
    06:00 -4°C° 0 mm 2 m/S 758 mmHg 88%
    07:00 -4°C° 0 mm 2 m/S 758 mmHg 88%
    08:00 -5°C° 0 mm 2 m/S 758 mmHg 88%
    09:00 -4°C° 0 mm 2 m/S 758 mmHg 84%
    10:00 -3°C° 0 mm 2 m/S 759 mmHg 80%
    11:00 -3°C° 0 mm 2 m/S 759 mmHg 75%
    12:00 -2°C° 0 mm 2 m/S 758 mmHg 73%
    13:00 -2°C° 0 mm 2 m/S 758 mmHg 71%
    14:00 -1°C° 0 mm 2 m/S 758 mmHg 69%
    15:00 -2°C° 0 mm 2 m/S 757 mmHg 73%
    16:00 -2°C° 0 mm 2 m/S 757 mmHg 77%
    17:00 -3°C° 0 mm 2 m/S 757 mmHg 81%
    18:00 -3°C° 0 mm 2 m/S 756 mmHg 81%
    19:00 -4°C° 0 mm 3 m/S 756 mmHg 81%
    20:00 -4°C° 0 mm 3 m/S 755 mmHg 81%
    21:00 -4°C° 0 mm 3 m/S 755 mmHg 80%
    22:00 -4°C° 0 mm 3 m/S 754 mmHg 80%
    23:00 -4°C° 0 mm 3 m/S 754 mmHg 79%
    Mehr zeigen